Home > Weather > Paderborn > Past weeks

Flag for Germany Weather for the Past 2 Weeks in Paderborn, North Rhine-Westphalia, Germany

Now
43 °F

More clouds than sun.


Feels Like: 39 °F
Forecast: 42 / 57 °F
Wind: 6 mph from Northwest

Location: Paderborn / Lippstadt

Current Time: Apr 30, 2016 at 3:25:58 PM

Latest Report: Apr 30, 2016 at 2:50 PM


Visibility: N/A

Pressure: 30.09 "Hg

Humidity: 100%

Dew Point: 43 °F

Location of PaderbornLocation

Historic Weather in Paderborn — Graph

°F

Paderborn Temperature Yesterday

Maximum temperature yesterday: 55 °F (at 2:50 PM)
Minimum temperature yesterday: 37 °F (at 12:20 AM)
Average temperature yesterday: 47 °F

High & Low Weather Summary for the Past Weeks

 TemperatureHumidityPressure
High63 °F (Apr 21, 2:50 PM)100% (Apr 16, 10:20 AM)30.45 "Hg (Apr 16, 10:20 AM)
Low32 °F (Apr 24, 4:20 PM)30% (Apr 21, 3:50 PM)29.45 "Hg (Apr 26, 10:50 AM)
Average44 °F76%29.92 "Hg
* Reported Apr 15 1:20 PM — Apr 30 1:50 PM, Paderborn, Weather by CustomWeather, © 2016

Note: Actual official high and low records may vary slightly from our data, if they occured in-between our weather recording intervals... More about our weather records

Advertising

Paderborn Weather History for the Previous 24 Hours

Scroll right to see more
 ConditionsComfort  
Time TempWeatherWind HumidityBarometerVisibility
1:50 PM
Sat, Apr 30
43 °FPartly sunny.6 mph93%30.07 "HgN/A
1:20 PM43 °FPartly sunny.6 mph100%30.07 "HgN/A
12:50 PM43 °FPartly sunny.7 mph100%30.07 "HgN/A
12:20 PM43 °FPartly sunny.6 mph100%30.07 "HgN/A
11:50 AM43 °FPartly sunny.5 mph93%30.07 "HgN/A
11:20 AM41 °FPartly sunny.6 mph100%30.07 "HgN/A
10:50 AM41 °FPartly sunny.6 mph100%30.07 "HgN/A
10:20 AM43 °FPartly sunny.7 mph100%30.07 "HgN/A
9:50 AM43 °FPartly sunny.6 mph100%30.04 "Hg4 mi
9:20 AM43 °FLow clouds.5 mph100%30.04 "Hg3 mi
8:50 AM43 °FLow clouds.5 mph100%30.04 "Hg5 mi
8:20 AM45 °FScattered clouds.3 mph93%30.04 "Hg5 mi
7:50 AM43 °FPassing clouds.3 mph93%30.01 "HgN/A
7:20 AM41 °FScattered clouds.5 mph100%30.01 "HgN/A
6:50 AM39 °FPassing clouds.2 mph93%30.01 "HgN/A
6:20 AM37 °FPassing clouds.8 mph100%30.01 "HgN/A
5:50 AM37 °FPassing clouds.2 mph100%30.01 "HgN/A
5:20 AM37 °FPassing clouds.7 mph100%30.01 "HgN/A
4:50 AM37 °FClear.7 mph100%30.01 "Hg10 mi
4:20 AM39 °FClear.8 mph100%29.98 "Hg10 mi
3:50 AM39 °FClear.6 mph100%30.01 "Hg10 mi
2:50 AM37 °FClear.2 mph100%30.01 "Hg10 mi
1:50 AM37 °FClear.3 mph100%30.01 "Hg10 mi
1:20 AM39 °FClear.3 mph100%30.01 "Hg10 mi
12:50 AM41 °FClear.1 mph93%30.01 "Hg10 mi
12:20 AM39 °FPassing clouds.3 mph100%30.01 "HgN/A
11:50 PM
Fri, Apr 29
43 °FClear.3 mph93%30.01 "Hg10 mi
11:20 PM43 °FClear.1 mph100%30.01 "Hg10 mi
10:50 PM43 °FClear.1 mph93%30.01 "Hg10 mi
10:20 PM45 °FPassing clouds.3 mph93%30.01 "HgN/A
9:50 PM46 °FPassing clouds.6 mph87%30.01 "HgN/A
9:20 PM50 °FPassing clouds.6 mph50%30.01 "HgN/A
8:50 PM50 °FSunny.9 mph43%29.98 "Hg10 mi
8:20 PM52 °FSunny.9 mph41%29.98 "Hg10 mi
7:50 PM52 °FSunny.9 mph41%29.98 "Hg10 mi
7:20 PM52 °FSunny.14 mph41%29.98 "Hg10 mi
6:50 PM54 °FSunny.14 mph38%29.95 "Hg10 mi
6:20 PM54 °FSunny.16 mph41%29.98 "Hg10 mi
5:50 PM54 °FPassing clouds.17 mph41%29.95 "HgN/A
5:20 PM54 °FSunny.15 mph38%29.98 "Hg10 mi
4:50 PM54 °FSunny.20 mph38%29.95 "Hg10 mi
4:20 PM54 °FSunny.16 mph38%29.95 "Hg10 mi
3:50 PM55 °FPassing clouds.20 mph38%29.95 "HgN/A
3:20 PM55 °FSunny.14 mph38%29.95 "Hg10 mi
Weather by CustomWeather, © 2016

See weather overviewHow to use our weather pages